Вернуться в каталог

STARLINK-36974

АктивенСвязьVLEO
NORAD 68272·PAYLOAD·🇺🇸 United States

Запущен Mar 19, 2026 с Vandenberg Space Force Base

Loading…

Ближайшие Пролёты (ближайшие 24 часа)

TLE

СвежийSource: CelesTrak SupGP

Эпоха: Sep 15, 2026, 03:34 UTC

1 68272C 26055L   26258.14909722  .00037799  00000+0  11168-2 0  2581
2 68272  53.1581 157.0830 0001294  73.1941 120.8672 15.34369937    12

Отслеживайте STARLINK-36974 в реальном времени с AllMySat

Download on the App Store